www.pogodaiklimat.ru

Погода и климат >> Архив погоды >> Южная Африка >> Аэропорт Джордж


ПОГОДА в Аэропорту Джордж

  • Прогноз погоды в Аэропорту Джордж
  • Монитор погоды в Аэропорту Джордж

АРХИВ ПОГОДЫ в Аэропорту Джордж

Время (UTC), дата Ветер
(напр.,м/с)
 
Видим.   Явления Облачность Т
(С)
Тd
(С)
f
(%)
Тe
(С)
Тes
(С)
Комфортность P
(гПа)
Po
(гПа)
Тmin
(С)
Tmax
(С)
R
(мм)
R24
(мм)
S
(см)
00 11.06 С 3 40 км ясно +10.9 +6.9 76 +9 +9 1021.4 997.6
03 11.06 СВ 2 20 км ясно +10.4 +7.7 83 +9 +9 1019.0 995.4
06 11.06 ЮВ 2 20 км 5/0
[Ci fib]
+10.6 +5.2 69 +10 +10 1018.6 995.0 +8.7
09 11.06 Ю 2 20 км 3/0
[Ci fib]
+19.8 +10.6 55 +22 +27 комфорт 1016.7 993.1
12 11.06 СЗ 6 20 км 1/0
[Ci fib]
+26.5 +0.5 18 +25 +27 комфорт 1012.5 989.0 +10.6
18 11.06 С 1 20 км 9/6 100 м
[St Ci fib]
+13.0 +11.4 90 +13 +13 1013.9 990.4 +27.1
00 12.06 СЗ 2 50 км ясно +11.6 +4.1 60 +11 +11 1015.0 991.4
03 12.06 СЗ 4 20 км ясно +10.5 +3.8 63 +8 +8 1016.7 993.1
06 12.06 СЗ 5 20 км 8/8 1000 м
[Sc]
+12.8 +8.1 73 +11 +11 1019.8 996.2 +9.7
09 12.06 ЮЗ 9 20 км 5/5 300 м
[Sc]
+15.2 +6.6 56 +13 +13 1021.9 998.2
12 12.06 З 9 20 км 8/8 1000 м
[Sc]
+15.8 +4.9 48 +14 +14 1023.1 999.4 +12.7
15 12.06 З 7 20 км 8/8 1000 м
[Sc]
+13.4 +4.6 55 +11 +11 1026.2 1002.4 +17.8
18 12.06 З 4 20 км 8/8 1000 м
[Sc]
+11.0 +1.3 51 +9 +9 1029.5 1005.6 +17.8
00 13.06 СЗ 3 40 км 6/6 2000 м
[]
+8.0 +3.5 73 +6 +6 1032.7 1008.4
03 13.06 СЗ 3 20 км 1/1 1000 м
[Sc]
+7.0 +1.3 67 +5 +5 1032.8 1008.9
06 13.06 С 2 20 км ясно +5.9 0.0 66 +4 +4 1034.8 1010.8 +5.5
09 13.06 СЗ 2 20 км ясно +13.8 +0.8 41 +14 +19 1035.0 1011.0
12 13.06 Ю 4 20 км ясно +14.0 +2.3 45 +13 +17 1031.9 1008.0 +5.9
18 13.06 СВ 1 20 км ясно +6.3 +2.2 75 +5 +5 1031.4 1007.5 +15.7
00 14.06 СЗ 2 50 км ясно +6.8 0.0 62 +5 +5 1028.9 1004.6
06 14.06 ЮЗ 3 20 км ясно +5.5 -2.3 57 +3 +3 1028.9 1005.1 +4.6
09 14.06 нст 1 20 км ясно +16.5 +2.2 38 +17 +23 1029.2 1005.3
12 14.06 В 3 20 км 1/0
[Ci sp]
+19.1 +30.0 100 +21 +26 комфорт 1025.7 1001.9 +4.5
15 14.06 ЮВ 1 50 км 1/0
[Ci sp]
+13.8 +5.4 57 +15 +15 1025.5 1001.7 +20.2
18 14.06 С 2 20 км ясно +8.7 +4.9 77 +7 +7 1025.8 1002.0 +20.2
00 15.06 С 2 50 км ясно +6.7 -1.2 57 +5 +5 1022.5 998.3
06 15.06 СЗ 2 20 км 3/0
[Ci fib]
+11.0 -5.0 32 +10 +10 1019.9 996.3 +4.3
09 15.06 З 3 20 км 3/0
[Ci fib]
+20.7 +1.2 27 +21 +26 комфорт 1021.1 997.4
12 15.06 ЮЗ 4 20 км 1/0
[Cs]
+17.9 +6.2 46 +18 +22 1021.3 997.6 +8.5
15 15.06 ЮЗ 2 20 км 1/1 600 м
[Sc]
+14.6 +10.5 76 +14 +14 1022.0 998.3 +23.5
18 15.06 СВ 2 20 км ясно +10.7 +6.1 73 +9 +9 1023.8 1000.1 +23.5
00 16.06 С 2 50 км ясно +9.2 +6.5 83 +8 +8 1022.9 998.9
03 16.06 С 1 20 км ясно +7.8 +4.6 80 +7 +7 1021.3 997.6
06 16.06 С 2 20 км 3/0
[Ci fib]
+7.5 +3.9 78 +5 +6 1021.3 997.6 +5.9
09 16.06 ЮВ 3 20 км 3/0
[Ci fib]
+16.9 +9.2 60 +17 +21 1020.6 996.9
12 16.06 ЮЗ 2 20 км 1/0
[Ci fib]
+22.9 +7.6 37 +24 +29 комфорт 1017.8 994.2 +7.5
18 16.06 С 2 20 км 1/0
[Ci fib]
+15.2 +2.5 42 +15 +15 1018.4 994.8 +26.1
00 17.06 СВ 3 50 км ясно +9.5 +2.4 61 +8 +8 1019.8 995.9
03 17.06 С 2 20 км 1/0
[Ci fib]
+11.3 -2.8 37 +11 +11 1019.5 995.9
06 17.06 С 2 20 км 1/0
[Cs]
+8.3 +2.6 67 +7 +7 1020.9 997.2 +7.3
09 17.06 нст 1 20 км 4/0
[Ci]
+17.3 +8.5 56 +18 +24 1021.9 998.2
12 17.06 Ю 5 20 км 8/0
[Cs]
+18.7 +2.2 33 +19 +21 1020.8 997.1 +8.3
15 17.06 С 2 20 км 9/0
[Cs]
+15.2 +9.8 70 +15 +15 1022.1 998.4 +21.8
18 17.06 С 2 20 км 3/0
[Ci fib]
+10.2 +8.0 86 +9 +9 1023.8 1000.1 +21.8

 

Местоположение метеостанции Аэропорт Джордж (Южная Африка): широта -34.01 долгота 22.38 высота над уровнем моря 190 м.

В архиве по умолчанию представлена погода в Аэропорту Джордж за последнюю неделю. Архивные данные за месяц целиком и за предыдущие месяцы, начиная с января 2011 года, Вы можете получить, выбрав интересующий диапазон дат из раскрывающегося списка и нажав кнопку "Ввод!".


*Определитесь, кто Вы:
робот инопланетянин человек

Внимание! Время в таблицах - всемирное. Для получения местного времени необходимо прибавить поправку, которая равна 2 ч.

Смотрите также архив погоды в соседних городах и на ближайших метеорологических станциях:

Погода на Мысе Mossel Bay (Южная Африка) (28 км)
Погода в Найсне (Южная Африка) (65 км)
Погода в Плеттенберг-Бей (Южная Африка) (88 км)
Погода в Принс Альберт (Южная Африка) (97 км)
Погода в Стилбай (Южная Африка) (99 км)
Погода в Риверсдейле (Южная Африка) (104 км)
Погода в Уиллоуморе (Южная Африка) (132 км)
Погода в Джоубертине (Южная Африка) (138 км)
Погода в Парке Tsitsikamma (Южная Африка) (141 км)
Погода в Ледисмите (Южная Африка) (152 км)

Пояснения к столбцам:

Ветер - указаны скорость ветра в м/с - средняя за 10 мин, порывы в срок и между сроками (в фигурных скобках) и направление, откуда дует ветер: С - северный, СВ - северо-восточный, В - восточный, ЮВ - юго-восточный, Ю - южный, ЮЗ - юго-западный, З - западный, СЗ - северо-западный.
Видимость - горизонтальная дальность видимости в метрах или километрах. При видимости от 1 до 10 км при отсутствии осадков обычно наблюдается дымка, при ухудшении видимости до 1 км и менее - туман. В сухую погоду видимость может ухудшаться дымом, пылью или мглою.
Явления - указаны атмосферные явления, наблюдавшиеся в срок или в последний час перед сроком; фигурными скобками обозначены явления, наблюдавшиеся между сроками (за 1-3 часа до срока); квадратными скобками обозначены град или гололедные отложения с указанием их диаметра в мм.
Облачность - указаны через наклонную черту общая и нижняя облачность в баллах и высота нижней границы облаков в метрах; квадратными скобками обозначены формы облаков: Ci - перистые, Cs - перисто-слоистые, Cc - перисто-кучевые, Ac - высококучевые, As - высокослоистые, Sc - слоисто-кучевые, Ns - слоисто-дождевые, Cu - кучевые, Cb - кучево-дождевые. Подробнее классификацию облаков см. в Атласе облаков (PDF).
T - Температура воздуха - температура, измеренная на высоте 2 м над землей.
Td - Температура точки росы - температура, при понижении до которой содержащийся в воздухе водяной пар достигнет насыщения.
f - Относительная влажность воздуха - влажноcть воздуха, измеренная на высоте 2 м над землей.
Te - Эффективная температура - температура, которую ощущает одетый по сезону человек в тени. Характеристика душности погоды. При расчете учитывается влияние влажности воздуха и скорости ветра на теплоощущения человека.
Tes - Эффективная температура на солнце - температура, которую ощущает человек, с поправкой на солнечный нагрев. Характеристика знойности погоды. Зависит от высоты солнца над горизонтом, облачности и скорости ветра. Ночью, в пасмурную погоду, а также при ветре 12 м/с и более поправка равна нулю.
P - Атмосферное давление - приведенное к уровню моря атмосферное давление.
Po - Атмосферное давление - измеренное на уровне метеостанции атмосферное давление.
Tmin - Минимальная температура - минимум температуры воздуха на высоте 2 м над землей.
Tmax - Максимальная температура - максимум температуры воздуха на высоте 2 м над землей.
R - Количество осадков - Количество выпавших осадков за период времени, мм. При наведении курсора мыши на число - период времени, за который выпало указанное количество осадков.
R24 - Количество осадков - Количество выпавших осадков за 24 часа, мм.
S - Снежный покров - Высота снежного покрова, см. При наведении курсора мыши на число - состояние снежного покрова и степень покрытия местности в баллах.